User: anonymous   Login
Location: Unspecified
(40.7945°N, 111.1337°W)
Time: 12:27:08
(UTC-06:00)
Language:

A-11 Canister half - Orbit

View from above orbital plane
View from above orbital plane
View from above satellite
View from above satellite

Ground track
Ground track

The orbit data is extracted from the following two-line orbital elements,

1    53U 60009E   20220.07853728 -.00000013  00000-0  69485-3 0  9999
2    53  47.2767 102.8683 0097260 231.3679 127.8371 12.17242018674730
Epoch (UTC): 07 August 2020 01:53:05
Eccentricity: 0.0097260
inclination: 47.2767°
perigee height: 1527 km
apogee height: 1682 km
right ascension of ascending node: 102.8683°
argument of perigee: 231.3679°
revolutions per day: 12.17242018
mean anomaly at epoch: 127.8371°
orbit number at epoch: 67473

The dashed part of the orbit path shows where the satellite is in the earth's shadow,  

DLR